OpenBCM V1.08-5-g2f4a (Linux)

Packet Radio Mailbox

IZ3LSV

[San Dona' di P. JN]

 Login: GUEST





  
CX2SA  > KEP      15.05.20 22:49l 94 Lines 3935 Bytes #999 (0) @ ARL
BID : ARLK039
Read: GUEST
Subj: ARLK039 Keplerian data
Path: IZ3LSV<I0OJJ<I0OJJ<N6RME<CX2SA
Sent: 200515/2141Z @:CX2SA.SAL.URY.SOAM #:31412 [Salto] FBB7.00e $:ARLK039

>From cx2sa%cx2sa.sal.ury.soam@i0ojj.ampr.org Fri May 15 23:45:12 2020
Received: from i0ojj.ampr.org by i0ojj.ampr.org (JNOS2.0n.beta) with SMTP
	id AA110902 ; Fri, 15 May 2020 23:45:12 +0200
Message-Id: <ARLK039@i0ojj.bbs>
>From: cx2sa@cx2sa.sal.ury.soam
X-JNOS-User-Port: Telnet   (i0ojj @ 44.134.32.240)  -> Sending message

From: CX2SA@CX2SA.SAL.URY.SOAM
To  : KEP@ARL


ZCZC SK39
QST de W1AW
Keplerian Bulletin 39  ARLK039
>From ARRL Headquarters
Newington, CT  May 15, 2020
To all radio amateurs

SB KEP ARL ARLK039
ARLK039 Keplerian data

Special thanks to AMSAT-NA (AMSAT.ORG) for the following Keplerian
data.

Decode 2-line elsets with the following key:
1 AAAAAU 00  0  0 BBBBB.BBBBBBBB  .CCCCCCCC  00000-0  00000-0 0  DDDZ
2 AAAAA EEE.EEEE FFF.FFFF GGGGGGG HHH.HHHH III.IIII JJ.JJJJJJJJKKKKKZ
KEY: A-CATALOGNUM B-EPOCHTIME C-DECAY D-ELSETNUM E-INCLINATION F-RAAN
G-ECCENTRICITY H-ARGPERIGEE I-MNANOM J-MNMOTION K-ORBITNUM Z-CHECKSUM

0 AO-07
1 7530U 74089B   20136.53760709 -.00000025 +00000-0 +12487-3 0  9995
2 7530 101.7973 106.4657 0012625 067.8569 067.9813 12.53643407081863
0 FO-29
1 24278U 96046B   20136.26378763 -.00000031  00000-0  14651-5 0  9999
2 24278  98.5793 250.4495 0351372 100.7979 263.2912 13.53097950172646
0 ISS
1 25544U 98067A   20136.53767674  .00002826  00000-0  58675-4 0  9990
2 25544  51.6449 150.0725 0001795 321.2979 176.4300 15.49373505226953
0 SO-50
1 27607U 02058C   20136.43128127 -.00000036  00000-0  15553-4 0  9990
2 27607  64.5541 115.3302 0052112 186.2222 173.8240 14.75633121935980
0 CO-55
1 27844U 03031E   20136.43749152  .00000046  00000-0  40206-4 0  9995
2 27844  98.6825 144.6706 0010556 145.2831 214.9038 14.22237062875448
0 RS-22
1 27939U 03042A   20136.57563741 +.00000116 +00000-0 +29445-4 0  9995
2 27939 098.0856 271.8421 0014321 096.9140 263.3694 14.66859125889198
0 RS-30
1 32953U 08025A   20136.55965042 +.00000037 +00000-0 +19437-3 0  9992
2 32953 082.4980 298.3616 0019910 124.4452 235.8519 12.43095749543540
0 KKS-1
1 33499U 09002H   20136.56150964 +.00000063 +00000-0 +17323-4 0  9996
2 33499 098.3211 350.3778 0008097 224.4134 135.6426 14.75529233607732
0 AO-71
1 37854U 11061E   20136.17400158  .00001082  00000-0  61933-4 0  9991
2 37854 101.6995 210.2617 0158738 160.7345 199.9963 15.07205622466919
0 AO-73
1 39444U 13066AE  20136.07936693  .00000207  00000-0  31654-4 0  9997
2 39444  97.5593 138.1715 0058521  21.2820 339.0809 14.82115134349015
0 UKUBE 1
1 40074U 14037F   20136.46849602  .00000210  00000-0  32214-4 0  9990
2 40074  98.4547 322.8415 0003439 219.4192 140.6772 14.84251479316862
0 XW-2A
1 40903U 15049E   20136.50030644  .00001313  00000-0  31691-4 0  9991
2 40903  97.2901 185.4247 0014096  29.9192  77.3762 15.42986712261397
0 XW-2F
1 40910U 15049M   20136.53566095 +.00000852 +00000-0 +45252-4 0  9991
2 40910 097.4681 140.5994 0016167 111.8282 347.4110 15.17889846257345
0 XW-2B
1 40911U 15049N   20136.50167583  .00000392  00000-0  23697-4 0  9996
2 40911  97.4767 138.7353 0015404 122.2112  29.1118 15.16195942257179
0 IO-86
1 40931U 15052B   20136.59129819 +.00000716 +00000-0 +10761-4 0  9999
2 40931 005.9961 209.8283 0012354 170.6669 189.3688 14.76635669250396
0 CAS-4B
1 42759U 17034B   20136.61722215 +.00000095 +00000-0 +19220-4 0  9992
2 42759 043.0175 207.4639 0010516 191.1037 318.4659 15.09812670161008
0 CAS-4A
1 42761U 17034D   20136.56220450 -.00000016 +00000-0 +12512-4 0  9994
2 42761 043.0184 207.0866 0011273 191.7559 312.2013 15.09890212160996
0 AO-91
1 43017U 17073E   20135.69568471 +.00000244 +00000-0 +24262-4 0  9990
2 43017 097.7243 049.2347 0257523 160.0483 201.1027 14.78903389134175
0 AO-92
1 43137U 18004AC  20136.13152727 +.00000754 +00000-0 +33985-4 0  9999
2 43137 097.4470 207.5159 0009615 162.9762 197.1800 15.24064700129977

Keplerian bulletins are transmitted twice weekly from W1AW.  The
next scheduled transmission of these data will be Tuesday, May 19,
2020, at 2230z on Baudot and BPSK31.
NNNN



Read previous mail | Read next mail


 18.12.2025 08:31:50lGo back Go up